Wooster, OH

11:00 AM EST on December 09, 2019 (GMT -0500)
Wayne County

Weather History for KBJJ - October, 2019

Change the Weather History Date:

Monday, October 21, 2019

  Actual Average Record
Temperature  
Mean Temperature 58 °F -  
Max Temperature 71 °F 57 °F 81 °F (2007)
Min Temperature 45 °F 36 °F 26 °F (1997)
Degree Days  
Heating Degree Days 7    
Growing Degree Days 8 (Base 50)    
Moisture  
Dew Point 49 °F    
Average Humidity 76    
Maximum Humidity 100    
Minimum Humidity 46    
Precipitation  
Precipitation 0.00 in - - ()
Sea Level Pressure  
Sea Level Pressure 29.91 in    
Wind  
Wind Speed 5 mph (SE)    
Max Wind Speed 20 mph    
Max Gust Speed 31 mph    
Visibility 8 miles    
Events      
Averages and records for this station are not official NWS values.
T = Trace of Precipitation, MM = Missing Value Source: NWS Daily Summary

Daily Weather History Graph

Daily Weather History Graph

Search for Another Location

Airport or City:

Astronomy

Oct. 21, 2019 Rise Set
Actual Time 7:45 AM EDT 6:38 PM EDT
Civil Twilight 7:17 AM EDT 7:06 PM EDT
Nautical Twilight 6:45 AM EDT 7:38 PM EDT
Astronomical Twilight 6:13 AM EDT 8:10 PM EDT
Moon No Moon Rise 3:03 PM EDT (10/21)
Length of Visible Light 11h 49m
Length of Day
10h 53m
Waning Gibbous, 48% of the Moon is Illuminated
Oct 21
Waning Gibbous
Oct 27
New
Nov 4
First Quarter
Nov 12
Full
Nov 19
Last Quarter

Hourly Weather History & Observations

Time (EDT) Temp. Dew Point Humidity Pressure Visibility Wind Dir Wind Speed Gust Speed Precip Events Conditions
12:56 AM 48.0 °F 46.9 °F 96% 29.99 in 10.0 mi Calm Calm - N/A   Mostly Cloudy
1:56 AM 51.1 °F 48.9 °F 92% 29.98 in 10.0 mi East 3.5 mph - N/A   Overcast
2:56 AM 51.1 °F 48.9 °F 92% 29.98 in 8.0 mi Calm Calm - N/A   Overcast
3:56 AM 48.9 °F 46.9 °F 93% 29.97 in 9.0 mi East 4.6 mph - N/A   Scattered Clouds
4:56 AM 48.0 °F 46.9 °F 96% 29.96 in 6.0 mi ESE 3.5 mph - N/A   Scattered Clouds
5:56 AM 45.0 °F 44.1 °F 97% 29.99 in 5.0 mi Calm Calm - N/A   Clear
6:56 AM 48.0 °F 46.0 °F 93% 30.00 in 5.0 mi SE 4.6 mph - N/A   Clear
7:47 AM 45.0 °F 45.0 °F 100% 29.99 in 2.0 mi Calm Calm - N/A   Clear
7:56 AM 45.0 °F 44.1 °F 97% 29.99 in 1.2 mi Calm Calm - N/A   Clear
8:11 AM 46.9 °F 46.9 °F 100% 29.97 in 2.0 mi ESE 4.6 mph - N/A   Clear
8:26 AM 48.9 °F 48.0 °F 97% 29.97 in 4.0 mi SE 4.6 mph - N/A   Clear
8:56 AM 52.0 °F 50.0 °F 93% 29.99 in 8.0 mi SE 8.1 mph - N/A   Clear
9:56 AM 55.0 °F 53.1 °F 93% 29.97 in 10.0 mi SE 6.9 mph - N/A   Clear
10:56 AM 62.1 °F 53.1 °F 72% 29.95 in 10.0 mi SE 13.8 mph - N/A   Clear
11:56 AM 66.9 °F 50.0 °F 54% 29.92 in 10.0 mi SE 15.0 mph 25.3 mph N/A   Clear
12:56 PM 68.0 °F 48.0 °F 49% 29.90 in 10.0 mi SSE 15.0 mph 31.1 mph N/A   Clear
1:56 PM 70.0 °F 48.0 °F 46% 29.83 in 10.0 mi SE 11.5 mph 21.9 mph N/A   Clear
2:56 PM 71.1 °F 51.1 °F 49% 29.82 in 10.0 mi South 19.6 mph 26.5 mph N/A   Clear
3:56 PM 70.0 °F 53.1 °F 55% 29.82 in 10.0 mi SSE 6.9 mph 18.4 mph N/A   Mostly Cloudy
4:56 PM 70.0 °F 52.0 °F 53% 29.79 in 10.0 mi SE 11.5 mph - N/A   Mostly Cloudy
5:56 PM 70.0 °F 53.1 °F 55% 29.80 in 10.0 mi South 11.5 mph 18.4 mph N/A   Scattered Clouds
6:56 PM 68.0 °F 53.1 °F 59% 29.79 in 10.0 mi South 8.1 mph - N/A   Partly Cloudy
7:56 PM 66.9 °F 53.1 °F 61% 29.77 in 10.0 mi SSE 6.9 mph - N/A   Clear
8:56 PM 68.0 °F 53.1 °F 59% 29.76 in 10.0 mi SSE 9.2 mph - N/A   Overcast
9:56 PM 68.0 °F 54.0 °F 61% 29.75 in 10.0 mi South 11.5 mph 18.4 mph N/A   Overcast